Change the Weather History Date:

Wednesday, March 12, 2014

  Actual Average Record
Temperature  
Mean Temperature 58 °F 54 °F  
Max Temperature 75 °F 66 °F 83 °F (2007)
Min Temperature 41 °F 42 °F 34 °F (1999)
Degree Days  
Heating Degree Days 7    
Month to date heating degree days 79  
Since 1 July heating degree days 1906  
Cooling Degree Days 0    
Month to date cooling degree days 0  
Year to date cooling degree days 0  
Growing Degree Days 8 (Base 50)    
Moisture  
Dew Point 38 °F    
Average Humidity 58    
Maximum Humidity 93    
Minimum Humidity 22    
Precipitation  
Precipitation 0.00 in 0.06 in 0.34 in (2010)
Month to date precipitation 0.19 0.97  
Year to date precipitation 2.58 5.55  
Since 1 July precipitation 3.55  
Snow  
Snow 0.00 in - - ()
Month to date snowfall 0.0  
Since 1 July snowfall 0.0  
Snow Depth 0.00 in    
Sea Level Pressure  
Sea Level Pressure 30.03 in    
Wind  
Wind Speed 4 mph (WNW)    
Max Wind Speed 12 mph    
Max Gust Speed 17 mph    
Visibility 10 miles    
Events      
T = Trace of Precipitation, MM = Missing Value Source: NWS Daily Summary

Daily Weather History Graph

Daily Weather History Graph

Search for Another Location

Airport or City:

Trip Planner

Search our weather history database for the weather conditions in past years. The results will help you decide how hot, cold, wet, or windy it might be!

Date:

Astronomy

Mar. 12, 2014 Rise Set
Actual Time 7:15 AM PDT 7:05 PM PDT
Civil Twilight 6:49 AM PDT 7:31 PM PDT
Nautical Twilight 6:19 AM PDT 8:01 PM PDT
Astronomical Twilight 5:49 AM PDT 8:31 PM PDT
Moon 3:44 PM PDT (3/12) 4:46 AM PDT (3/12)
Length of Visible Light 12h 41m
Length of Day
11h 49m
Waxing Gibbous, 86% of the Moon is Illuminated
Mar 12
Waxing Gibbous
Mar 16
Full
Mar 23
Last Quarter
Mar 30
New
Apr 7
First Quarter

Hourly Weather History & Observations

Time (PDT) Temp. Windchill Dew Point Humidity Pressure Visibility Wind Dir Wind Speed Gust Speed Precip Events Conditions
12:53 AM 50.0 °F - 42.1 °F 74% 30.01 in 10.0 mi Calm Calm - N/A   Clear
1:53 AM 46.9 °F - 41.0 °F 80% 30.02 in 10.0 mi ESE 5.8 mph - N/A   Clear
2:53 AM 48.0 °F - 42.1 °F 80% 30.01 in 10.0 mi ESE 3.5 mph - N/A   Clear
3:53 AM 46.9 °F - 41.0 °F 80% 30.01 in 10.0 mi ENE 5.8 mph - N/A   Clear
4:53 AM 46.0 °F 44.8 °F 42.1 °F 86% 30.02 in 10.0 mi East 3.5 mph - N/A   Clear
5:53 AM 43.0 °F - 39.9 °F 89% 30.03 in 7.0 mi Calm Calm - N/A   Clear
6:53 AM 42.1 °F - 39.9 °F 92% 30.06 in 10.0 mi Calm Calm - N/A   Clear
7:53 AM 46.0 °F 44.8 °F 44.1 °F 93% 30.06 in 7.0 mi West 3.5 mph - N/A   Overcast
8:53 AM 51.1 °F - 44.1 °F 77% 30.08 in 10.0 mi Calm Calm - N/A   Scattered Clouds
9:53 AM 55.0 °F - 44.1 °F 67% 30.09 in 10.0 mi West 10.4 mph - N/A   Clear
10:53 AM 60.1 °F - 43.0 °F 53% 30.09 in 10.0 mi NW 6.9 mph - N/A   Clear
11:53 AM 66.0 °F - 42.1 °F 42% 30.08 in 10.0 mi Variable 5.8 mph - N/A   Clear
12:53 PM 69.1 °F - 30.0 °F 23% 30.07 in 10.0 mi Calm Calm - N/A   Clear
1:53 PM 72.0 °F - 34.0 °F 25% 30.04 in 10.0 mi WSW 9.2 mph - N/A   Clear
2:53 PM 73.0 °F - 32.0 °F 22% 30.02 in 10.0 mi NNW 8.1 mph - N/A   Clear
3:53 PM 73.9 °F - 34.0 °F 23% 30.00 in 10.0 mi WSW 9.2 mph - N/A   Clear
4:53 PM 73.0 °F - 36.0 °F 26% 30.00 in 10.0 mi North - - N/A   Clear
5:53 PM 72.0 °F - 33.1 °F 24% 30.00 in 10.0 mi NW 4.6 mph - N/A   Clear
6:53 PM 68.0 °F - 36.0 °F 31% 30.00 in 10.0 mi WNW 3.5 mph - N/A   Partly Cloudy
7:53 PM 64.9 °F - 32.0 °F 29% 30.00 in 10.0 mi North - - N/A   Clear
8:53 PM 62.1 °F - 34.0 °F 35% 30.00 in 10.0 mi North - - N/A   Clear
9:53 PM 55.0 °F - 36.0 °F 49% 30.01 in 10.0 mi North - - N/A   Clear
10:53 PM 51.1 °F - 41.0 °F 68% 30.01 in 10.0 mi North - - N/A   Clear
11:53 PM 48.0 °F - 39.9 °F 74% 30.01 in 10.0 mi North - - N/A   Clear